Aspen, CO

8:08 AM MST on December 17, 2017 (GMT -0700)
Aspen-Pitkin County / Sardy Field

Weather History for KASE - November, 2013

Change the Weather History Date:

Wednesday, November 13, 2013

  Actual Average Record
Temperature  
Mean Temperature 37 °F 30 °F  
Max Temperature 54 °F 43 °F 64 °F (1999)
Min Temperature 20 °F 18 °F -6 °F (2000)
Degree Days  
Heating Degree Days 28 35  
Month to date heating degree days 413 413  
Since 1 July heating degree days 1618 1668  
Cooling Degree Days 0 0  
Month to date cooling degree days 0 0  
Year to date cooling degree days 69 39  
Moisture  
Dew Point 16 °F    
Average Humidity 47    
Maximum Humidity 75    
Minimum Humidity 19    
Precipitation  
Precipitation 0.00 in 0.05 in 0.50 in (1980)
Month to date precipitation 0.24 0.67  
Year to date precipitation 14.44 15.42  
Sea Level Pressure  
Sea Level Pressure 30.25 in    
Wind  
Wind Speed 5 mph (SW)    
Max Wind Speed 13 mph    
Max Gust Speed 17 mph    
Visibility 10 miles    
Events      
T = Trace of Precipitation, MM = Missing Value Source: NWS Daily Summary

Daily Weather History Graph

Daily Weather History Graph

Search for Another Location

Airport or City:

Trip Planner

Search our weather history database for the weather conditions in past years. The results will help you decide how hot, cold, wet, or windy it might be!

Date:

Astronomy

Nov. 13, 2013 Rise Set
Actual Time 6:48 AM MST 4:54 PM MST
Civil Twilight 6:20 AM MST 5:22 PM MST
Nautical Twilight 5:48 AM MST 5:55 PM MST
Astronomical Twilight 5:16 AM MST 6:26 PM MST
Moon 2:42 PM MST (11/13) 2:46 AM MST (11/13)
Length of Visible Light 11h 02m
Length of Day
10h 05m
Waxing Gibbous, 85% of the Moon is Illuminated
Nov 13
Waxing Gibbous
Nov 17
Full
Nov 25
Last Quarter
Dec 2
New
Dec 9
First Quarter

Hourly Weather History & Observations

Time (MST) Temp. Windchill Dew Point Humidity Pressure Visibility Wind Dir Wind Speed Gust Speed Precip Events Conditions
12:53 AM 26.1 °F 19.4 °F 14.0 °F 60% 30.39 in 10.0 mi SSW 5.8 mph - N/A   Clear
1:53 AM 26.1 °F 19.4 °F 12.0 °F 55% 30.37 in 10.0 mi SSW 5.8 mph - N/A   Clear
2:53 AM 21.9 °F 15.7 °F 12.9 °F 68% 30.39 in 10.0 mi SSW 4.6 mph - N/A   Clear
3:53 AM 23.0 °F 15.8 °F 12.0 °F 63% 30.39 in 10.0 mi SSW 5.8 mph - N/A   Clear
4:53 AM 26.1 °F 19.4 °F 10.9 °F 53% 30.41 in 10.0 mi SSW 5.8 mph - N/A   Clear
5:53 AM 24.1 °F 16.0 °F 10.9 °F 57% 30.43 in 10.0 mi SSW 6.9 mph - N/A   Clear
6:53 AM 21.0 °F 16.2 °F 12.0 °F 68% 30.45 in 10.0 mi SSE 3.5 mph - N/A   Clear
7:53 AM 30.0 °F 26.5 °F 14.0 °F 51% 30.41 in 10.0 mi SSE 3.5 mph - N/A   Clear
8:53 AM 37.9 °F - 12.9 °F 36% 30.35 in 10.0 mi Calm Calm - N/A   Clear
9:53 AM 43.0 °F - 10.9 °F 27% 30.29 in 10.0 mi Calm Calm - N/A   Clear
10:53 AM 48.0 °F - 10.0 °F 22% 30.24 in 10.0 mi NW 3.5 mph - N/A   Clear
11:53 AM 51.1 °F - 12.9 °F 22% 30.19 in 10.0 mi North 8.1 mph - N/A   Clear
12:53 PM 54.0 °F - 12.9 °F 20% 30.16 in 10.0 mi North 8.1 mph - N/A   Clear
1:53 PM 51.1 °F - 16.0 °F 25% 30.14 in 10.0 mi NW 8.1 mph - N/A   Clear
2:53 PM 48.9 °F - 17.1 °F 28% 30.17 in 10.0 mi NNW 4.6 mph - N/A   Clear
3:53 PM 46.9 °F - 19.9 °F 34% 30.16 in 10.0 mi Calm Calm - N/A   Clear
4:53 PM 44.1 °F 42.5 °F 19.9 °F 38% 30.16 in 10.0 mi WNW 3.5 mph - N/A   Clear
5:53 PM 39.0 °F 34.0 °F 23.0 °F 53% 30.17 in 10.0 mi South 6.9 mph - N/A   Clear
6:53 PM 35.1 °F 31.0 °F 24.1 °F 64% 30.21 in 10.0 mi SSW 4.6 mph - N/A   Clear
7:53 PM 33.1 °F 26.9 °F 21.9 °F 64% 30.16 in 10.0 mi SSW 6.9 mph - N/A   Clear
8:53 PM 28.9 °F 23.9 °F 21.0 °F 72% 30.12 in 10.0 mi SW 4.6 mph - N/A   Clear
9:53 PM 28.0 °F - 19.9 °F 72% 30.10 in 10.0 mi Calm Calm - N/A   Clear
10:53 PM 30.0 °F 26.5 °F 21.0 °F 69% 30.06 in 10.0 mi South 3.5 mph - N/A   Partly Cloudy
11:53 PM 30.9 °F 26.2 °F 21.9 °F 69% 30.03 in 10.0 mi South 4.6 mph - N/A   Overcast